Location: Arrington
(35.8681°N, 86.7092°W)
Time: 14:20:02
(UTC+00:00)

ATLAS 2AS CENTAUR R/B - Pass Details

Date: 23 February 2020
Orbit: 929 x 1283 km, 63.7° (Epoch: 05 April)

Event Time Altitude Azimuth Distance (km) Brightness Sun altitude
Rises 10:35:01 0° 336° (NNW) 4,185 5.6 -23.0°
Reaches altitude 10° 10:38:52 10° 353° (N) 3,165 5.1 -22.3°
Maximum altitude 10:44:07 20° 37° (NE) 2,430 5.0 -21.2°
Drops below altitude 10° 10:49:06 10° 82° (E) 2,984 6.2 -20.2°
Sets 10:52:34 0° 99° (E) 3,871 7.2 -19.5°
